Location: Moulis
(42.9609°N, 1.0909°E)
Time: 16:28:57
(UTC+00:00)

Cosmos 2227 Rocket - Pass Details

Date: 11 December 2025
Orbit: 838 x 844 km, 71.0° (Epoch: 16 January)

Event Time Altitude Azimuth Distance (km) Brightness Sun altitude
Rises 18:37:29 0° 327° (NNW) 3,401 5.6 -24.1°
Reaches altitude 10° 18:40:06 10° 319° (NW) 2,463 5.0 -24.5°
Maximum altitude 18:45:09 35° 255° (WSW) 1,340 3.8 -25.5°
Drops below altitude 10° 18:50:11 10° 192° (SSW) 2,451 4.8 -26.4°
Sets 18:52:48 0° 183° (S) 3,382 5.5 -26.8°
